Location: Heilbronn
(49.1548°N, 9.2780°E)
Time: 14:56:21
(UTC+01:00)

ISS - Pass Details

Date: 13 January 2018
Orbit: 402 x 407 km, 51.6° (Epoch: 18 January)

Event Time Altitude Azimuth Distance (km) Brightness Sun altitude
Exits shadow 05:33:54 27° 122° (ESE) 827 -1.7 -25.4°
Drops below altitude 10° 05:35:31 10° 118° (ESE) 1,464 -0.1 -25.1°
Sets 05:37:36 0° 116° (ESE) 2,322 1.1 -24.8°
